CW9417 Weather Reports


Display with metric or nautical units.
time (UTC)temp
F
wind
direction
speed
MPH
gust
MPH
rain 1hr
in
rain 24hr
in
rain mn
in
humidity
%
barometer
mb
20260502194541 61 148 1.0 4.0 0.00 0.00 0.00 31 1014.5
20260502194033 61 40 0.0 3.0 0.00 0.00 0.00 37 1014.5
20260502193531 61 140 0.0 2.0 0.00 0.00 0.00 43 1014.5
20260502193037 61 268 1.0 3.0 0.00 0.00 0.00 47 1014.5
20260502192516 61 100 0.0 3.0 0.00 0.00 0.00 53 1014.5
20260502192012 62 120 0.0 0.0 0.00 0.00 0.00 56 1014.5
20260502191504 62 11 0.0 0.0 0.00 0.00 0.00 58 1014.6
20260502190959 62 73 0.0 0.0 0.00 0.00 0.00 59 1014.6
20260502190453 62 72 0.0 0.0 0.00 0.00 0.00 59 1014.7
20260502185946 62 72 0.0 0.0 0.00 0.00 0.00 59 1014.7
20260502185438 62 67 0.0 0.0 0.00 0.00 0.00 58 1014.7
20260502184930 62 83 0.0 0.0 0.00 0.00 0.00 58 1014.7
20260502184424 63 62 0.0 0.0 0.00 0.00 0.00 58 1014.6
20260502183919 63 62 0.0 1.0 0.00 0.00 0.00 58 1014.6
20260502183412 63 62 0.0 2.0 0.00 0.00 0.00 57 1014.6
20260502182906 63 44 0.0 3.0 0.00 0.00 0.00 56 1014.6
20260502182400 64 43 0.0 3.0 0.00 0.00 0.00 56 1014.5
20260502182116 64 61 0.0 4.0 0.00 0.00 0.00 56 1014.5
20260502181616 65 49 0.0 4.0 0.00 0.00 0.00 56 1014.5
20260502180842 65 134 0.0 2.0 0.00 0.00 0.00 57 1014.6
20260502180338 66 62 0.0 3.0 0.00 0.00 0.00 57 1014.6
20260502170246 69 257 0.0 3.0 0.00 0.00 0.00 49 1015.3
20260502164243 70 25 0.0 3.0 0.00 0.00 0.00 50 1015.6
20260502163742 70 272 0.0 4.0 0.00 0.00 0.00 49 1015.6
20260502163241 69 145 1.0 5.0 0.00 0.00 0.00 49 1015.7
20260502162740 69 269 2.0 5.0 0.00 0.00 0.00 46 1015.7
20260502162238 69 293 2.0 7.0 0.00 0.00 0.00 51 1015.7
20260502161737 69 293 3.0 7.0 0.00 0.00 0.00 47 1015.8
20260502161237 69 290 2.0 7.0 0.00 0.00 0.00 45 1015.8
20260502161004 69 299 2.0 7.0 0.00 0.00 0.00 46 1015.8
20260502160238 69 264 2.0 7.0 0.00 0.00 0.00 47 1015.8
20260502152224 71 209 1.0 5.0 0.00 0.00 0.00 49 1016.1
20260502151723 70 293 1.0 5.0 0.00 0.00 0.00 51 1016.1
20260502151449 70 293 2.0 6.0 0.00 0.00 0.00 51 1016.1
20260502150723 70 285 2.0 8.0 0.00 0.00 0.00 51 1016.2
20260502150226 70 274 2.0 8.0 0.00 0.00 0.00 51 1016.3
20260502130201 68 261 4.0 9.0 0.00 0.00 0.00 48 1017.1
20260502123701 69 283 3.0 8.0 0.00 0.00 0.00 41 1017.4
20260502123420 69 302 3.0 10.0 0.00 0.00 0.00 37 1017.4
20260502122655 69 248 3.0 10.0 0.00 0.00 0.00 39 1017.4
20260502122155 69 295 3.0 10.0 0.00 0.00 0.00 40 1017.4
20260502121655 69 274 4.0 10.0 0.00 0.00 0.00 43 1017.4
20260502121155 70 292 3.0 8.0 0.00 0.00 0.00 47 1017.4
20260502120654 70 243 3.0 9.0 0.00 0.00 0.00 45 1017.4
20260502120256 70 215 3.0 10.0 0.00 0.00 0.00 44 1017.5
20260502115148 70 277 3.0 8.0 0.00 0.00 0.00 46 1017.5
20260502114905 70 252 2.0 7.0 0.00 0.00 0.00 39 1017.6
20260502114134 69 240 2.0 7.0 0.00 0.00 0.00 31 1017.6
20260502113626 69 278 3.0 11.0 0.00 0.00 0.00 23 1017.7
20260502113120 68 267 3.0 11.0 0.00 0.00 0.00 30 1017.8
20260502112614 69 300 2.0 8.0 0.00 0.00 0.00 30 1017.8
20260502112109 69 210 2.0 6.0 0.00 0.00 0.00 25 1017.9
20260502111601 68 292 3.0 8.0 0.00 0.00 0.00 22 1017.9
20260502111058 68 238 3.0 8.0 0.00 0.00 0.00 18 1017.9
20260502110551 68 305 4.0 12.0 0.00 0.00 0.00 15 1017.8
20260502110059 67 259 4.0 12.0 0.00 0.00 0.00 16 1017.8
20260502105540 67 278 4.0 9.0 0.00 0.00 0.00 17 1017.9
20260502105032 67 289 4.0 8.0 0.00 0.00 0.00 15 1017.9
20260502104757 67 281 4.0 8.0 0.00 0.00 0.00 16 1017.9
20260502104024 68 290 3.0 9.0 0.00 0.00 0.00 13 1017.9
20260502103516 68 304 3.0 9.0 0.00 0.00 0.00 13 1017.9
20260502103008 68 338 4.0 8.0 0.00 0.00 0.00 22 1018.0
20260502102502 68 262 3.0 8.0 0.00 0.00 0.00 32 1018.0
20260502102221 68 274 3.0 8.0 0.00 0.00 0.00 24 1018.0
20260502101452 68 298 3.0 8.0 0.00 0.00 0.00 27 1018.0
20260502100946 68 292 3.0 7.0 0.00 0.00 0.00 20 1018.0
20260502100448 67 346 3.0 8.0 0.00 0.00 0.00 25 1018.0
20260502091443 64 279 2.0 7.0 0.00 0.00 0.00 1 1018.3
20260502091209 64 280 2.0 7.0 0.00 0.00 0.00 1 1018.2
20260502090443 63 270 2.0 5.0 0.00 0.00 0.00 1 1018.2
20260502071406 60 289 0.0 0.0 0.00 0.00 0.00 20 1018.3
20260502070853 59 222 0.0 0.0 0.00 0.00 0.00 20 1018.4
20260502070351 59 233 0.0 0.0 0.00 0.00 0.00 23 1018.3
20260502070117 59 118 0.0 0.0 0.00 0.00 0.00 26 1018.3
20260502065347 59 113 0.0 0.0 0.00 0.00 0.00 28 1018.2
20260502064847 59 120 0.0 1.0 0.00 0.00 0.00 28 1018.2
20260502064345 58 87 0.0 1.0 0.00 0.00 0.00 25 1018.2
20260502063850 58 122 0.0 0.0 0.00 0.00 0.00 23 1018.2
20260502063342 58 139 0.0 0.0 0.00 0.00 0.00 24 1018.2
20260502063104 58 139 0.0 0.0 0.00 0.00 0.00 22 1018.2
20260502062336 57 159 0.0 0.0 0.00 0.00 0.00 22 1018.2
20260502061836 57 160 0.0 1.0 0.00 0.00 0.00 20 1018.2
20260502061331 57 148 0.0 1.0 0.00 0.00 0.00 21 1018.2
20260502060834 57 110 0.0 0.0 0.00 0.00 0.00 27 1018.3
20260502060332 56 125 0.0 0.0 0.00 0.00 0.00 33 1018.2
20260502055831 56 126 0.0 1.0 0.00 0.00 0.00 37 1018.2
20260502055328 56 172 0.0 1.0 0.00 0.00 0.00 42 1018.2
20260502054830 56 207 0.0 2.0 0.00 0.00 0.00 44 1018.2
20260502054325 55 252 0.0 2.0 0.00 0.00 0.00 47 1018.2
20260502053824 55 122 0.0 0.0 0.00 0.00 0.00 48 1017.9
20260502053323 54 122 0.0 0.0 0.00 0.00 0.00 47 1017.9
20260502052823 54 122 0.0 0.0 0.00 0.00 0.00 46 1017.9
20260502052325 54 125 0.0 0.0 0.00 0.00 0.00 43 1017.9
20260502051821 53 146 0.0 0.0 0.00 0.00 0.00 43 1018.0
20260502051322 53 144 0.0 1.0 0.00 0.00 0.00 43 1017.9
20260502050817 53 145 0.0 1.0 0.00 0.00 0.00 39 1018.0
20260502050322 53 145 0.0 1.0 0.00 0.00 0.00 37 1018.0
20260502045819 52 145 0.0 1.0 0.00 0.00 0.00 35 1018.1
20260502045319 52 145 0.0 1.0 0.00 0.00 0.00 34 1018.0
20260502044820 52 123 0.0 1.0 0.00 0.00 0.00 31 1018.1
20260502044321 52 117 0.0 0.0 0.00 0.00 0.00 32 1018.1
20260502043819 52 117 0.0 0.0 0.00 0.00 0.00 31 1018.2
20260502043318 52 114 0.0 0.0 0.00 0.00 0.00 30 1018.0
20260502042818 52 114 0.0 0.0 0.00 0.00 0.00 31 1017.9
20260502042320 52 114 0.0 0.0 0.00 0.00 0.00 31 1018.1
20260502041822 52 114 0.0 0.0 0.00 0.00 0.00 32 1018.1
20260502041320 52 114 0.0 0.0 0.00 0.00 0.00 34 1018.0
20260502040817 52 114 0.0 0.0 0.00 0.00 0.00 36 1017.9
20260502040329 52 114 0.0 0.0 0.00 0.00 0.00 38 1018.0
20260502035817 52 114 0.0 0.0 0.00 0.00 0.00 39 1018.1
20260502035314 53 112 0.0 0.0 0.00 0.00 0.00 39 1018.2
20260502034816 53 112 0.0 0.0 0.00 0.00 0.00 42 1018.1
20260502034316 53 112 0.0 0.0 0.00 0.00 0.00 46 1018.2
20260502034045 53 112 0.0 0.0 0.00 0.00 0.00 46 1018.2
20260502033317 53 112 0.0 0.0 0.00 0.00 0.00 46 1018.2
20260502032818 53 114 0.0 0.0 0.00 0.00 0.00 45 1018.2
20260502032310 53 116 0.0 0.0 0.00 0.00 0.00 45 1018.2
20260502031813 53 117 0.0 0.0 0.00 0.00 0.00 45 1018.3
20260502031327 53 117 0.0 0.0 0.00 0.00 0.00 48 1018.4
20260502030811 53 117 0.0 0.0 0.00 0.00 0.00 47 1018.3
20260502030312 53 116 0.0 0.0 0.00 0.00 0.00 48 1018.4
20260502025812 53 117 0.0 0.0 0.00 0.00 0.00 47 1018.4
20260502025310 53 110 0.0 0.0 0.00 0.00 0.00 48 1018.4
20260502024813 53 110 0.0 0.0 0.00 0.00 0.00 49 1018.4
20260502024309 54 110 0.0 0.0 0.00 0.00 0.00 52 1018.5
20260502023814 54 110 0.0 0.0 0.00 0.00 0.00 54 1018.6
20260502023305 54 110 0.0 0.0 0.00 0.00 0.00 54 1018.8
20260502022802 54 103 0.0 1.0 0.00 0.00 0.00 55 1018.7
20260502022254 54 102 0.0 1.0 0.00 0.00 0.00 55 1018.6
20260502022009 54 112 0.0 0.0 0.00 0.00 0.00 55 1018.6
20260502021512 54 112 0.0 0.0 0.00 0.00 0.00 54 1018.7
20260502020745 54 109 0.0 0.0 0.00 0.00 0.00 55 1018.7
20260502020244 54 113 0.0 0.0 0.00 0.00 0.00 56 1018.8
20260502015744 55 116 0.0 0.0 0.00 0.00 0.00 56 1018.8
20260502015241 55 116 0.0 0.0 0.00 0.00 0.00 56 1018.8
20260502015229 55 116 0.0 0.0 0.00 0.00 0.00 57 1018.9
20260502014508 55 116 0.0 2.0 0.00 0.00 0.00 58 1018.8
20260502013741 55 116 0.0 2.0 0.00 0.00 0.00 58 1018.8
20260502013241 55 108 0.0 2.0 0.00 0.00 0.00 58 1018.9
20260502012737 56 109 0.0 2.0 0.00 0.00 0.00 58 1018.9
20260502012715 56 119 0.0 2.0 0.00 0.00 0.00 59 1018.9
20260502011732 56 106 0.0 2.0 0.00 0.00 0.00 59 1018.9
20260502011233 56 106 0.0 0.0 0.00 0.00 0.00 59 1019.0
20260502010729 56 105 0.0 2.0 0.00 0.00 0.00 59 1019.1
20260502010231 56 108 0.0 2.0 0.00 0.00 0.00 59 1019.1
20260502005729 56 107 0.0 0.0 0.00 0.00 0.00 59 1019.2
20260502005234 56 112 0.0 0.0 0.00 0.00 0.00 59 1019.3
20260502004729 56 121 0.0 2.0 0.00 0.00 0.00 59 1019.3
20260502004231 56 110 1.0 2.0 0.00 0.00 0.00 59 1019.4
20260502003723 56 108 1.0 2.0 0.00 0.00 0.00 59 1019.4
20260502003219 56 110 0.0 1.0 0.00 0.00 0.00 59 1019.5
20260502002713 56 108 0.0 0.0 0.00 0.00 0.00 59 1019.6
20260502002204 57 109 0.0 0.0 0.00 0.00 0.00 59 1019.6
20260502001658 57 115 0.0 0.0 0.00 0.00 0.00 58 1019.6
20260502001152 57 100 0.0 0.0 0.00 0.00 0.00 58 1019.6
20260502000907 57 100 0.0 1.0 0.00 0.00 0.00 57 1019.7
20260502000140 57 112 0.0 2.0 0.00 0.00 0.00 57 1019.7
20260501235634 58 115 0.0 2.0 0.00 0.00 0.00 57 1019.8
20260501235351 58 106 0.0 2.0 0.00 0.00 0.00 57 1019.8
20260501234846 58 110 0.0 1.0 0.00 0.00 0.00 57 1019.9
20260501234123 58 112 0.0 3.0 0.00 0.00 0.00 56 1019.9
20260501233610 58 112 0.0 3.0 0.00 0.00 0.00 56 1019.9
20260501233103 58 104 0.0 1.0 0.00 0.00 0.00 56 1020.0
20260501232829 59 103 0.0 2.0 0.00 0.00 0.00 56 1020.0
20260501232053 59 111 0.0 2.0 0.00 0.00 0.00 56 1020.0
20260501231547 59 112 0.0 1.0 0.00 0.00 0.00 56 1020.1
20260501231040 59 108 0.0 2.0 0.00 0.00 0.00 57 1020.1
20260501230535 59 103 0.0 2.0 0.00 0.00 0.00 57 1020.2
20260501230043 59 100 0.0 2.0 0.00 0.00 0.00 58 1020.2
20260501225523 58 108 0.0 2.0 0.00 0.00 0.00 58 1020.2
20260501225025 58 105 0.0 2.0 0.00 0.00 0.00 58 1020.2
20260501224523 58 124 0.0 0.0 0.00 0.00 0.00 59 1020.3
20260501224021 58 129 0.0 0.0 0.00 0.00 0.00 59 1020.3
20260501223519 58 129 0.0 0.0 0.00 0.00 0.00 59 1020.4
20260501223021 59 129 0.0 0.0 0.00 0.00 0.00 59 1020.4
20260501222520 58 123 0.0 0.0 0.00 0.00 0.00 59 1020.3
20260501222021 58 123 0.0 0.0 0.00 0.00 0.00 59 1020.4
20260501221519 58 108 0.0 0.0 0.00 0.00 0.00 59 1020.4
20260501221015 58 108 0.0 0.0 0.00 0.00 0.00 58 1020.4
20260501220518 58 108 0.0 0.0 0.00 0.00 0.00 59 1020.5
20260501220026 59 108 0.0 0.0 0.00 0.00 0.00 59 1020.5
20260501215517 59 108 0.0 0.0 0.00 0.00 0.00 59 1020.5
20260501215017 59 108 0.0 0.0 0.00 0.00 0.00 58 1020.5
20260501214516 60 108 0.0 0.0 0.00 0.00 0.00 58 1020.5
20260501214239 60 108 0.0 0.0 0.00 0.00 0.00 57 1020.6
20260501213518 60 108 0.0 0.0 0.00 0.00 0.00 56 1020.5
20260501213011 61 108 0.0 0.0 0.00 0.00 0.00 54 1020.6
20260501212502 61 107 0.0 0.0 0.00 0.00 0.00 54 1020.5
20260501211958 61 107 0.0 0.0 0.00 0.00 0.00 54 1020.5
20260501211450 61 108 0.0 0.0 0.00 0.00 0.00 54 1020.6
20260501210946 61 107 0.0 0.0 0.00 0.00 0.00 55 1020.6
20260501210440 62 107 0.0 0.0 0.00 0.00 0.00 54 1020.7
20260501205935 63 107 0.0 0.0 0.00 0.00 0.00 53 1020.7
20260501205427 63 107 0.0 0.0 0.00 0.00 0.00 51 1020.7
20260501204921 63 107 0.0 0.0 0.00 0.00 0.00 49 1020.7
20260501204416 64 107 0.0 1.0 0.00 0.00 0.00 48 1020.8
20260501203909 64 118 0.0 2.0 0.00 0.00 0.00 47 1020.8
20260501203622 64 113 0.0 2.0 0.00 0.00 0.00 48 1020.8
20260501203115 64 113 0.0 2.0 0.00 0.00 0.00 47 1020.8
20260501202352 64 109 0.0 2.0 0.00 0.00 0.00 47 1020.9
20260501201847 64 115 0.0 0.0 0.00 0.00 0.00 48 1020.9
20260501201342 64 116 0.0 0.0 0.00 0.00 0.00 48 1020.8
20260501200833 64 116 0.0 0.0 0.00 0.00 0.00 49 1020.9
20260501200340 64 116 0.0 0.0 0.00 0.00 0.00 49 1020.8
20260501195822 64 116 0.0 0.0 0.00 0.00 0.00 49 1020.8
20260501195316 65 116 0.0 0.0 0.00 0.00 0.00 49 1020.9